Location: Clatteringshaws Loch
(55.0508°N, 4.2860°W)
Time: 20:45:53
(UTC+01:00)

SR - Visible Passes

Search period start: 24 August 2016 00:00
Search period end: 03 September 2016 00:00
Orbit: 585 x 873 km, 66.7° (Epoch: 24 August)

Date Brightness Start Highest point End Pass type
(mag) Time Alt. Az. Time Alt. Az. Time Alt. Az.
24 Aug ? 00:22:43 10° NNW 00:26:05 22° NNE 00:29:30 10° ENE visible
24 Aug ? 02:04:40 10° NW 02:08:55 60° NE 02:10:50 31° ESE visible
24 Aug ? 03:47:03 10° WNW 03:50:10 26° WSW 03:50:10 26° WSW visible
24 Aug ? 21:49:32 10° WNW 21:52:49 20° NNW 21:56:04 10° NE visible
24 Aug ? 23:33:14 10° NW 23:36:19 19° N 23:39:24 10° NE visible
25 Aug ? 01:15:24 10° NW 01:19:26 39° NE 01:21:42 22° E visible
25 Aug ? 02:57:26 10° NW 03:01:03 45° W 03:01:03 45° W visible
25 Aug ? 22:43:33 10° NW 22:46:30 18° N 22:49:26 10° NE visible
26 Aug ? 00:26:08 10° NNW 00:29:50 28° NNE 00:32:48 14° E visible
26 Aug ? 02:08:02 10° NW 02:12:10 81° WNW 02:12:10 81° WNW visible
26 Aug ? 03:51:08 10° WNW 03:51:33 11° WNW 03:51:33 11° WNW visible
26 Aug ? 21:53:39 10° NW 21:56:39 18° N 21:59:40 10° NE visible
26 Aug ? 23:36:47 10° NNW 23:40:08 22° NNE 23:43:32 10° ENE visible
27 Aug ? 01:18:44 10° NW 01:22:59 58° NE 01:23:26 55° ENE visible
27 Aug ? 03:01:05 10° WNW 03:02:48 20° WNW 03:02:48 20° WNW visible
27 Aug ? 21:03:34 10° WNW 21:06:52 21° NNW 21:10:08 10° NNE visible
27 Aug ? 22:47:18 10° NW 22:50:21 19° N 22:53:26 10° NE visible
28 Aug ? 00:29:28 10° NW 00:33:30 38° NE 00:34:47 30° ENE visible
28 Aug ? 02:11:29 10° NW 02:14:10 34° WNW 02:14:10 34° WNW visible
28 Aug ? 21:57:36 10° NW 22:00:32 18° N 22:03:28 10° NE visible
28 Aug ? 23:40:11 10° NNW 23:43:53 27° NNE 23:46:14 17° ENE visible
29 Aug ? 01:22:06 10° NW 01:25:37 59° NW 01:25:37 59° NW visible
29 Aug ? 21:07:41 10° NW 21:10:42 18° N 21:13:43 10° NE visible
29 Aug ? 22:50:50 10° NNW 22:54:11 21° NNE 22:57:34 10° ENE visible
30 Aug ? 00:32:48 10° NW 00:37:03 57° NE 00:37:07 57° NE visible
30 Aug ? 02:15:06 10° WNW 02:16:31 18° WNW 02:16:31 18° WNW visible
30 Aug ? 22:01:21 10° NW 22:04:24 19° N 22:07:28 10° NE visible
30 Aug ? 23:43:32 10° NW 23:47:33 37° NE 23:48:41 31° ENE visible
31 Aug ? 01:25:33 10° NW 01:28:05 32° WNW 01:28:05 32° WNW visible
31 Aug ? 21:11:38 10° NW 21:14:34 18° N 21:17:31 10° NE visible
31 Aug ? 22:54:15 10° NNW 22:57:56 27° NNE 23:00:16 17° ENE visible
01 Sep ? 00:36:09 10° NW 00:39:41 59° NW 00:39:41 59° NW visible
01 Sep ? 22:04:54 10° NNW 22:08:13 21° NNE 22:11:36 10° ENE visible
01 Sep ? 23:46:52 10° NW 23:51:07 55° NE 23:51:19 55° NE visible
02 Sep ? 01:29:09 10° WNW 01:30:43 19° WNW 01:30:43 19° WNW visible
02 Sep ? 21:15:23 10° NW 21:18:26 18° N 21:21:30 10° NE visible
02 Sep ? 22:57:36 10° NW 23:01:36 36° NNE 23:02:59 29° ENE visible
